Volver al catálogo

FENGYUN 1C DEB

ActivoPO
NORAD 31386·DEBRIS·🇨🇳 China

Lanzado May 10, 1999 desde Taiyuan Satellite Launch Center

Loading…

Próximos Pases (próximas 24 horas)

TLE

ActualizadoSource: Space-Track

Época: Sep 14, 2026, 10:31 UTC

1 31386U 99025BSS 26257.43856931  .00001615  00000-0  12114-2 0  9991
2 31386  98.4411 250.6524 0194013 246.7378 111.3253 13.87319369976838

Sigue FENGYUN 1C DEB en tiempo real con AllMySat

Download on the App Store